Welcome to the New NWS' Forecast!
Most changes are behind the scenes, but click here for differences you might notice.
Latest weather observations around

Talladega Municipal Airport (KASN)

Using International System of Units (Switch to English Units)
Date/ Time (CDT) Wind (kph) Vis. (km) Weather Sky Cond. Temp (°C) Rel. Humidity Wind Chill (°C) Heat Index (°C) Pressure Precip. (cm)
Air Dwpt 6 hour Altimeter (hPa) Sea level (hPa) 1 hr 3 hr 6 hr
Max Min
Aug 18 09:55 SW 9 11.27 Light Rain BKN014 BKN021 OVC028 26 25     93%   27 1019   0 0  
Aug 18 09:35 SW 8 16.09 Cloudy BKN014 OVC019 27 24     86%   29 1019        
Notice The following observation data may not be complete
Aug 18 07:35   16.09 Cloudy BKN023 BKN033 OVC041          %              
Aug 18 06:55 SW 8 16.09 Cloudy SCT008 SCT022 OVC090 24 24     97%   25 1019.3        
Notice The following observation data may not be complete
Aug 18 06:35   16.09 Cloudy SCT008 BKN022 OVC090          %              
Aug 18 05:35 WSW 13 16.09 Cloudy OVC012 24 23     95%   25 1019.3        
Aug 18 04:15 SW 9 16.09 Cloudy SCT009 OVC014 24 23     95%   25 1019        
Aug 18 02:55 S 9 16.09 Cloudy OVC011 24 23     96%   25 1019.3        
Aug 18 01:35 SW 9 16.09 Partly Cloudy SCT015 SCT026 SCT041 24 23     94%   24 1019.7        
Notice The following observation data may not be complete
Aug 18 01:15   16.09 Mostly Cloudy BKN039          %              
Aug 18 00:35 SSW 9 16.09 Partly Cloudy SCT028 SCT034 24 23     94%   25 1020        
Notice The following observation data may not be complete
Aug 17 23:15   16.09 Clear CLR          %              
Aug 17 21:55 Calm 16.09 Clear CLR 24 24     100%   25 1019.7     0  
Notice The following observation data may not be complete
Aug 17 20:35   16.09 Mostly Cloudy SCT029 BKN036 BKN044          %         0    
Aug 17 17:55 SSW 15 16.09 Partly Cloudy SCT032 31 22     60%   35 1018        
Aug 17 15:15 S 11 16.09 Partly Cloudy SCT037 32 23     61%   37 1018.6        
Aug 17 14:55 S 13 16.09 Partly Cloudy SCT037 SCT050 32 23     58%   37 1019        
Aug 17 14:35 SSW 8 16.09 Partly Cloudy SCT039 SCT050 SCT065 32 23     62%   37 1019        
Aug 17 14:15 WSW 13 16.09 Clear CLR 32 23     60%   36 1019.3        
Aug 17 13:55 SSW 9 16.09 Partly Cloudy SCT032 SCT042 SCT048 32 23     59%   37 1019.7        
Aug 17 13:35 W 8 16.09 Partly Cloudy SCT037 SCT042 SCT048 31 23     64%   35 1019.7        
Aug 17 13:15 WSW 8 16.09 Partly Cloudy SCT034 SCT040 31 23     63%   36 1020        
Aug 17 12:55 SW 8 16.09 Mostly Cloudy SCT033 BKN041 31 23     63%   36 1020.3        
Aug 17 12:35 SW 9 16.09 Partly Cloudy SCT026 SCT041 31 24     66%   36 1020.7        
Aug 17 12:15 SW 8 16.09 Partly Cloudy SCT050 29 23     71%   34 1021        
Aug 17 11:55 SW 9 16.09 Mostly Cloudy SCT024 SCT037 BKN055 29 24     74%   33 1021        
Aug 17 11:35 SW 8 16.09 Cloudy SCT025 OVC035 29 24     76%   33 1021.3        
Aug 17 11:15 SW 9 16.09 Cloudy SCT019 SCT025 OVC033 28 24     79%   31 1021.7        
Aug 17 10:55 W 13 16.09 Cloudy SCT019 BKN028 OVC035 28 24     78%   32 1021.7        
Aug 17 10:35 SSW 5 16.09 Cloudy SCT017 BKN023 OVC029 27 24     85%   29 1021.7        
Aug 17 10:15 WSW 13 16.09 Cloudy BKN017 OVC023 26 24     85%   29 1022        
Aug 17 09:55 SSW 9 16.09 Cloudy OVC015 26 24     87%   28 1022        
Aug 17 09:35 SW 9 16.09 Cloudy OVC013 26 24     89%   26 1022        
Aug 17 09:15 SW 11 16.09 Cloudy OVC009 25 24     91%   26 1022        
Aug 17 08:35 SSW 8 16.09 Cloudy BKN007 OVC012 25 24     93%   26 1022        
Aug 17 08:15 S 9 16.09 Cloudy OVC009 25 24     94%   25 1022        
Aug 17 07:55 S 9 11.27 Cloudy OVC009 24 23     95%   25 1022        
Aug 17 07:35 SSW 5 16.09 Cloudy OVC009 24 23     95%   25 1022        
Aug 17 07:15 S 5 16.09 Cloudy OVC009 24 23     95%   25 1021.7        
Aug 17 06:55 Calm 16.09 Cloudy OVC009 24 23     95%   25 1021.7        
Aug 17 06:35 S 8 16.09 Cloudy OVC009 24 23     95%   25 1021.7        
Aug 17 06:15 SSW 5 16.09 Cloudy OVC009 24 23     94%   25 1022        
Aug 17 05:55 SW 9 16.09 Cloudy OVC011 24 23     94%   25 1022        
Aug 17 05:35 SSW 5 16.09 Cloudy OVC011 24 23     95%   25 1021.7        
Aug 17 05:15 SSW 9 16.09 Cloudy OVC011 24 23     94%   25 1021.7        
Aug 17 04:55 SSW 8 16.09 Cloudy OVC011 24 23     95%   25 1021.7        
Aug 17 04:35 S 8 16.09 Cloudy OVC011 24 23     97%   24 1021.3        
Aug 17 04:15 S 5 16.09 Cloudy OVC013 24 23     96%   24 1021.3        
Aug 17 03:55 SSE 5 16.09 Cloudy OVC015 23 23     98%   24 1021        
Aug 17 03:35 Calm 16.09 Cloudy OVC015 24 23     96%   24 1020.7        
Aug 17 03:15 Calm 16.09 Mostly Cloudy BKN015 BKN023 23 23     97%   24 1020.7        
Aug 17 02:55 Calm 16.09 Partly Cloudy SCT021 23 23     96%   24 1020.7        
Aug 17 02:35 Calm 16.09 Clear CLR 23 23     98%   24 1020.7        
Aug 17 02:15 Calm 16.09 Clear CLR 23 23     96%   24 1020.3        
Aug 17 01:55 Calm 16.09 Clear CLR 24 23     96%   24 1020.3        
Aug 17 01:35 Calm 16.09 Clear CLR 24 23     95%   25 1020.7        
Aug 17 01:15 Calm 16.09 Clear CLR 24 23     95%   25 1020.7        
Aug 17 00:55 S 5 16.09 Clear CLR 24 23     95%   25 1021        
Aug 17 00:35 Calm 16.09 Clear CLR 25 23     92%   25 1021.3        
Aug 17 00:15 Calm 16.09 Clear CLR 24 23     93%   25 1021.3        
Aug 16 23:55 S 8 16.09 Clear CLR 25 23     91%   26 1021.3        
Aug 16 23:35 Calm 16.09 Clear CLR 25 23     90%   26 1021.3        
Aug 16 23:15 S 9 16.09 Partly Cloudy SCT026 25 23     90%   26 1021.7        
Aug 16 22:55 SSE 5 16.09 Partly Cloudy SCT026 25 24     91%   26 1021.7        
Aug 16 22:35 Calm 16.09 Clear CLR 25 23     91%   26 1021.7        
Aug 16 22:15 Calm 16.09 Clear CLR 25 23     89%   26 1021.7        
Aug 16 21:55 SE 5 16.09 Clear CLR 25 23     89%   26 1021.3        
Aug 16 21:35 Calm 16.09 Clear CLR 26 23     85%   27 1021        
Aug 16 21:15 SSE 5 16.09 Clear CLR 26 23     82%   28 1020.7        
Aug 16 20:55 Calm 16.09 Clear CLR 27 23     80%   29 1020.3        
Aug 16 20:35 SSE 5 16.09 Clear CLR 27 23     76%   29 1020.3        
Aug 16 20:15 S 8 16.09 Clear CLR 27 23     75%   30 1020.3        
Aug 16 19:55 S 11 16.09 Clear CLR 28 23     73%   31 1020.3        
Aug 16 19:35 S 17 16.09 Clear CLR 29 23     71%   32 1020        
Aug 16 19:15 S 18 16.09 Clear CLR 30 22     63%   33 1019.7        
Aug 16 18:55 S 9 16.09 Clear CLR 31 22     58%   34 1019.3        
Aug 16 18:35 S 9 16.09 Clear CLR 31 22     57%   34 1019        
Aug 16 18:15 S 9 16.09 Clear CLR 32 22     56%   35 1019        
Aug 16 17:55 S 13 16.09 Clear CLR 32 22     53%   36 1019        
Aug 16 17:35 S 11 16.09 Clear CLR 33 22     54%   37 1019        
Aug 16 17:15 S 11 16.09 Clear CLR 33 22     53%   36 1019        
Aug 16 16:55 S 9 16.09 Clear CLR 32 22     55%   35 1019.3        
Aug 16 16:35 SSE 11 16.09 Clear CLR 32 22     54%   36 1019.3        
Aug 16 16:20 S 8 16.09 Clear CLR 32 22     56%   36 1019.3        
Aug 16 15:55 SSW 9 16.09 Partly Cloudy SCT047 SCT060 32 22     55%   35 1019.3        
Aug 16 15:35 SE 13 16.09 Mostly Cloudy SCT047 BKN050 BKN075 32 23     57%   36 1019.3        
Aug 16 15:15 S 13 16.09 Partly Cloudy SCT060 SCT070 32 22     54%   36 1019.3        
Aug 16 14:55 S 8 16.09 Partly Cloudy SCT048 SCT055 SCT070 33 22     53%   37 1019.7        
Aug 16 14:35 S 9 16.09 Clear CLR 33 22     53%   37 1020        
Aug 16 14:15 SW 8 16.09 Mostly Cloudy SCT044 SCT060 BKN075 33 22     54%   37 1020        
Aug 16 13:55 SSW 5 16.09 Mostly Cloudy SCT042 SCT048 BKN060 32 22     56%   35 1020.3        
Aug 16 13:35 SW 11 16.09 Partly Cloudy SCT046 SCT060 32 23     58%   36 1020.7        
Aug 16 13:15 S 9 16.09 Partly Cloudy SCT040 SCT048 SCT060 32 22     56%   36 1020.7        
Aug 16 12:55 SW 11 16.09 Partly Cloudy SCT038 SCT045 33 23     57%   37 1020.7        
Aug 16 12:35 S 9 16.09 Mostly Cloudy BKN034 BKN043 32 23     60%   37 1021        
Aug 16 12:15 S 8 16.09 Mostly Cloudy SCT027 BKN035 BKN041 31 24     66%   36 1021.3        
Aug 16 11:55 WSW 8 16.09 Mostly Cloudy BKN025 BKN034 30 24     71%   35 1021.3        
Aug 16 11:35 WSW 11 16.09 Mostly Cloudy SCT025 BKN030 30 24     73%   35 1021.7        
Aug 16 11:15 WNW 13 16.09 Mostly Cloudy SCT021 BKN031 30 24     74%   35 1021.7        
Aug 16 10:55 W 8 16.09 Partly Cloudy SCT023 30 24     74%   35 1021.7        
Aug 16 10:35 W 8 16.09 Partly Cloudy SCT021 SCT027 29 24     76%   34 1022        
Aug 16 10:15 W 9 16.09 Mostly Cloudy SCT014 BKN020 BKN027 28 24     79%   32 1021.7        
Aug 16 09:55 SSE 5 16.09 Mostly Cloudy BKN012 28 25     81%   32 1021.3        
Aug 16 09:35 Calm 16.09 Cloudy OVC012 27 24     85%   29 1021.3        
Aug 16 09:15 Calm 16.09 Cloudy OVC010 26 24     86%   28 1021.7        
Aug 16 08:55 Calm 16.09 Cloudy OVC010 25 23     90%   26 1021.7        
Aug 16 08:35 Calm 16.09 Cloudy OVC010 25 23     91%   26 1021.7        
Aug 16 08:15 Calm 16.09 Cloudy OVC010 24 23     95%   25 1021.7        
Aug 16 07:55 Calm 16.09 Cloudy OVC010 23 22     97%   24 1021.7        
Aug 16 07:35 Calm 16.09 Cloudy OVC010 22 22     98%   23 1021.7        
Aug 16 07:15 Calm 16.09 Partly Cloudy SCT010 22 22     99%   23 1021        
Aug 16 06:55 Calm 16.09 Partly Cloudy SCT010 22 21     99%   22 1020.7        
Aug 16 06:35 Calm 16.09 Mostly Cloudy BKN010 21 21     99%   22 1020.7        
Aug 16 06:15 Calm 16.09 Mostly Cloudy BKN010 21 21     100%     1020.3        
Aug 16 05:55 Calm 16.09 Partly Cloudy SCT010 21 21     98%   22 1020        
Aug 16 05:35 Calm 16.09 Clear CLR 21 21     99%   22 1020        
Aug 16 05:15 Calm 16.09 Clear CLR 21 21     99%   22 1019.7        
Aug 16 04:55 Calm 16.09 Clear CLR 21 21     99%     1019.7        
Aug 16 04:35 Calm 16.09 Clear CLR 21 21     100%     1019.7        
Aug 16 04:15 Calm 16.09 Clear CLR 21 21     99%   22 1019.3        
Aug 16 03:55 Calm 16.09 Clear CLR 21 21     99%   22 1019.3        
Aug 16 03:35 Calm 16.09 Clear CLR 21 21     99%   22 1019.3        
Aug 16 03:15 Calm 16.09 Clear CLR 21 21     99%   22 1019.3        
Aug 16 02:55 Calm 16.09 Clear CLR 22 22     97%   23 1019.3        
Aug 16 02:35 Calm 16.09 Clear CLR 22 21     98%   22 1019        
Aug 16 02:15 Calm 16.09 Clear CLR 22 21     98%   22 1019        
Aug 16 01:55 Calm 16.09 Clear CLR 22 22     99%   23 1019        
Aug 16 01:35 Calm 16.09 Clear CLR 22 22     96%   23 1019        
Aug 16 01:15 Calm 16.09 Clear CLR 22 22     97%   23 1019.3        
Aug 16 00:55 Calm 16.09 Clear CLR 22 22     98%   23 1019.3        
Aug 16 00:35 Calm 16.09 Clear CLR 22 22     96%   23 1019.3        
Aug 16 00:15 Calm 16.09 Clear CLR 22 22     96%   23 1019        
Aug 15 23:55 Calm 16.09 Clear CLR 23 22     95%   24 1019        
Aug 15 23:35 Calm 16.09 Clear CLR 23 22     95%   24 1019        
Aug 15 23:15 Calm 16.09 Clear CLR 23 22     94%   24 1019        
Aug 15 22:55 Calm 16.09 Clear CLR 23 22     94%   24 1019        
Aug 15 22:35 Calm 16.09 Clear CLR 23 22     93%   24 1019        
Aug 15 22:15 Calm 16.09 Clear CLR 23 22     94%   24 1019        
Aug 15 21:55 Calm 16.09 Clear CLR 24 22     91%   24 1019        
Aug 15 21:35 Calm 16.09 Clear CLR 24 22     89%   25 1019        
Aug 15 21:15 Calm 16.09 Clear CLR 24 22     89%   25 1019        
Aug 15 20:55 Calm 16.09 Clear CLR 24 22     84%   25 1019        
Aug 15 20:35 SE 5 16.09 Clear CLR 25 22     82%   25 1018.6        
Aug 15 20:15 SE 8 16.09 Clear CLR 25 22     82%   26 1018.6        
Aug 15 19:55 Calm 16.09 Clear CLR 26 21     76%   26 1018.6        
Aug 15 19:35 S 5 16.09 Clear CLR 26 22     74%   28 1018.3        
Aug 15 19:15 Calm 16.09 Clear CLR 27 21     68%   29 1018        
Aug 15 18:55 ESE 5 16.09 Clear CLR 28 21     66%   30 1018        
Aug 15 18:35 SSE 8 16.09 Clear CLR 29 21     63%   31 1018        
Aug 15 18:15 E 11 16.09 Partly Cloudy SCT060 28 20     61%   30 1018        
Aug 15 17:55   16.09 Partly Cloudy SCT050 SCT060 28 19     56%   29 1018.3        
Aug 15 17:35   16.09 Thunderstorms SCT050 SCT060 30 21     58%   32 1018.3        
Aug 15 17:15 SE 15 16.09 Partly Cloudy SCT050 31 20     53%   33 1017.6        
Aug 15 16:55 W 13 16.09 Thunderstorms CLR 34 22     50%   37 1017.6        
Aug 15 16:35 WNW 11 16.09 Clear CLR 34 22     50%   38 1017.6        
Aug 15 16:15 W 8 16.09 Clear CLR 34 22     51%   38 1017.6        
Aug 15 15:55 WSW 15 16.09 Clear CLR 33 22     50%   37 1018        
Aug 15 15:35 W 8 16.09 Clear CLR 34 22     50%   37 1017.6        
Aug 15 15:15 W 13 16.09 Clear CLR 33 22     51%   37 1018        
Aug 15 14:55 Calm 16.09 Clear CLR 33 20     45%   36 1018        
Aug 15 14:35 S 8 16.09 Clear CLR 34 20     44%   36 1018.3        
Aug 15 14:15 S 11 16.09 Clear CLR 34 20     44%   36 1018.6        
Aug 15 13:55 WSW 8 16.09 Clear CLR 33 21     49%   36 1018.6        
Aug 15 13:35 ESE 8 16.09 Clear CLR 33 21     51%   36 1019        
Aug 15 13:15 S 9 16.09 Partly Cloudy SCT060 32 21     51%   35 1019        
Aug 15 12:55 S 11 16.09 Clear CLR 33 21     49%   36 1019        
Aug 15 12:35 SSE 8 16.09 Partly Cloudy SCT044 33 22     51%   37 1019        
Aug 15 12:15 SE 5 16.09 Partly Cloudy SCT042 33 22     54%   37 1019.3        
Aug 15 11:55 ESE 5 16.09 Partly Cloudy SCT040 32 23     58%   37 1019.7        
Aug 15 11:35 ESE 8 16.09 Clear CLR 31 22     58%   35 1019.7        
Aug 15 11:15 Calm 16.09 Clear CLR 31 23     65%   35 1019.7        
Aug 15 10:55 SW 5 16.09 Clear CLR 31 23     65%   35 1019.7        
Aug 15 10:35 SSW 5 16.09 Clear CLR 30 23     68%   33 1019.7        
Aug 15 09:55 Calm 16.09 Clear CLR 28 23     73%   32 1019.7        
Aug 15 09:35 Calm 16.09 Clear CLR 28 24     79%   31 1019.7        
Aug 15 09:15 Calm 16.09 Clear CLR 26 23     83%   28 1019.7        
Aug 15 08:55 Calm 16.09 Clear CLR 25 23     86%   26 1019.7        
Aug 15 08:35 Calm 16.09 Clear CLR 25 22     88%   25 1019.7        
Aug 15 08:15 Calm 16.09 Clear CLR 24 22     91%   24 1019.3        
Aug 15 07:55 Calm 16.09 Clear CLR 23 22     94%   23 1019        
Aug 15 07:35 Calm 16.09 Clear CLR 22 22     98%   23 1019        
Aug 15 07:15 Calm 11.27 Clear CLR 21 21     99%   22 1018.6        
Aug 15 06:55 Calm 16.09 Clear CLR 21 21     99%     1018.6        
Aug 15 06:35 Calm 11.27 Clear CLR 21 21     100%     1018.3        
Aug 15 06:15 Calm 16.09 Clear CLR 21 21     99%     1018        
Aug 15 05:55 Calm 16.09 Clear CLR 21 21     100%     1018        
Aug 15 05:35 Calm 16.09 Clear CLR 21 21     100%     1018        
Aug 15 05:15 Calm 16.09 Clear CLR 21 21     100%     1018        
Aug 15 04:55 Calm 11.27 Clear CLR 21 21     100%     1018        
Aug 15 04:35 Calm 11.27 Clear CLR 21 21     100%   22 1017.6        
Aug 15 04:15 Calm 16.09 Clear CLR 22 22     100%   22 1018        
Aug 15 03:55 Calm 16.09 Clear CLR 21 21     99%   22 1018        
Aug 15 03:35 Calm 16.09 Clear CLR 22 22     100%   23 1018        
Aug 15 03:15 Calm 16.09 Clear CLR 22 22     100%   23 1018.3        
Aug 15 02:55 Calm 16.09 Clear CLR 22 22     99%   23 1018.3        
Aug 15 02:35 Calm 16.09 Clear CLR 22 22     99%   23 1018        
Aug 15 02:15 Calm 16.09 Clear CLR 22 22     98%   23 1018        
Aug 15 01:55 Calm 16.09 Clear CLR 23 22     98%   23 1018        
Aug 15 01:35 Calm 16.09 Clear CLR 23 22     98%   24 1018.3        
Aug 15 01:15 Calm 16.09 Clear CLR 23 23     97%   24 1018.3        
Aug 15 00:55 Calm 16.09 Clear CLR 23 23     98%   24 1018.3        
Aug 15 00:35 Calm 16.09 Clear CLR 23 23     98%   24 1018.3        
Aug 15 00:15 Calm 16.09 Clear CLR 24 23     96%   24 1018.6        
Aug 14 23:55 Calm 16.09 Clear CLR 24 23     95%   25 1018.6        
Aug 14 23:35 Calm 16.09 Clear CLR 24 23     96%   24 1018.6        
Aug 14 23:15 Calm 16.09 Clear CLR 24 23     92%   25 1018.3        
Aug 14 22:55 Calm 16.09 Clear CLR 24 23     94%   25 1018        
Aug 14 22:35 Calm 16.09 Partly Cloudy SCT070 25 23     91%   25 1018        
May 15 12:55 ENE 11 16.09 Mostly Cloudy BKN055 BKN070 28 20     60%   30 1015.6        
May 15 11:15 E 11 16.09 Clear CLR 28 20     62%   29 1016.3        
May 14 20:35 Calm 16.09 Clear CLR 26 21     70%   28 1014.6        
May 14 18:35 N 8 16.09 Clear CLR 31 19     47%   32 1014.2        
May 14 09:35 Calm 16.09 Clear CLR 27 20     62%   29 1018.3        
May 14 05:55 Calm 11.27 Clear CLR 16 16     99%     1017.6        
May 14 01:15 Calm 16.09 Clear CLR 19 18     96%     1018        
May 14 00:15 Calm 16.09 Clear CLR 19 18     94%     1018.3        
May 13 11:15 NNW 13 16.09 Clear CLR 30 16     42%   30 1021.3        
May 12 15:35 WNW 11 16.09 Clear CLR 32 14     33%   31 1019.3        
May 12 07:55 Calm 16.09 Clear CLR 20 17     84%     1022.4        
Notice The following observation data may not be complete
May 12 06:35   16.09 Clear CLR          %              
May 11 23:55 Calm 16.09 Clear CLR 19 17     89%     1019.7        
May 11 17:15 S 11 16.09 Clear CLR 31 15     37%   31 1018        
Notice The following observation data may not be complete
Jun 12 07:15   16.09 Clear CLR          %              
Notice The following observation data may not be complete
Jun 12 06:35   16.09 Clear CLR          %              
Jun 11 15:15 SSE 15 16.09 Clear   31 21     55%   34 1020        
Notice The following observation data may not be complete
Jun 11 12:35   16.09 Mostly Cloudy SCT034 SCT046 BKN070          %              
Jun 11 12:15 SE 15 16.09 Mostly Cloudy SCT029 SCT050 BKN070 29 22     64%   32 1021.3        
Jun 11 10:15 SE 11 16.09 Partly Cloudy SCT021 28 22     73%   30 1022        
Notice The following observation data may not be complete
Jun 11 04:35   16.09 Clear CLR          %              
Jun 11 03:15 Calm 16.09 Mostly Cloudy BKN070 18 17     92%     1019.3        
Jun 10 17:55 SSE 11 16.09 Clear   29 17     49%   30 1017.6        
Notice The following observation data may not be complete
Jun 10 15:35   16.09 Partly Cloudy SCT075 SCT095          %              
Jun 09 20:35 Calm 16.09 Partly Cloudy SCT065 23 18     70%   24 1014.6        
Jun 09 15:15 Calm 16.09 Mostly Cloudy BKN065 28 15     44%   28 1014.6        
Jun 09 11:35 SSW 8 16.09 Mostly Cloudy BKN050 27 15     49%   27 1015.9        
Jun 09 09:55 Calm 16.09 Clear CLR 25 17     61%   25 1015.9        
Jun 09 04:15 Calm 16.09 Clear CLR 16 15     94%     1013.6        
Jun 09 01:15 Calm 16.09 Clear CLR 17 16     94%     1013.6        
Notice The following observation data may not be complete
Jun 08 21:15   16.09 Mostly Cloudy BKN060          %              
Notice The following observation data may not be complete
Jun 08 16:15   16.09 Partly Cloudy SCT055          %              
Jun 08 14:15 W 11 16.09 Clear CLR 27 15     48%   27 1012.5        
Jun 08 13:15 WSW 8 16.09 Partly Cloudy SCT040 SCT046 26 15     51%   26 1013.2        
Jun 08 08:15 Calm 16.09 Clear   19 16     81%     1013.9        
Jun 08 07:55 Calm 16.09 Clear CLR 18 16     88%     1013.9        
Jun 08 07:15 Calm 16.09 Mostly Cloudy BKN048 17 15     88%     1013.6        
Jun 07 23:15 Calm 16.09 Clear CLR 18 14     77%     1012.5        
Jun 07 22:35 Calm 16.09 Clear CLR 18 15     82%     1012.2        
Jun 07 19:35 N 9 16.09 Clear CLR 25 13     47%   25 1010.8        
Jun 07 19:15 N 8 16.09 Clear CLR 26 13     44%   26 1010.5        
Notice The following observation data may not be complete
Jun 07 15:15   16.09 Partly Cloudy SCT043 SCT050          %              
Jun 07 10:15 NE 13 16.09 Clear CLR 23 17     67%   24 1010.5        
Jun 07 09:55 NE 21 16.09 Clear CLR 23 17     67%   23 1010.5        
Jun 06 12:35 NE 15 16.09 Partly Cloudy SCT014 SCT038 24 22     86%   25 1009.5        
Jun 06 04:35 Calm 11.27 Partly Cloudy SCT036 SCT065 SCT110 21 21     98%     1009.2        
Notice The following observation data may not be complete
Jun 05 22:15   16.09 Clear CLR          %              
Jun 05 17:15 SSE 11 16.09 Thunderstorms and Rain OVC095 23 22     96%   24 1009.8   0